Location: Capannuccia
(43.7000°N, 11.3000°E)
Time: 11:48:08
(UTC+00:00)

X-37B - Pass Details

Date: 01 August 2021
Orbit: 381 x 393 km, 45.0° (Epoch: 29 August)

Event Time Altitude Azimuth Distance (km) Brightness Sun altitude
Exits shadow 03:31:42 - 233° (SW) 1,562 2.9 -5.9°
Reaches altitude 10° 03:32:08 10° 231° (SW) 1,392 2.7 -5.8°
Maximum altitude 03:35:09 46° 157° (SSE) 520 1.2 -5.4°
Drops below altitude 10° 03:38:11 10° 82° (E) 1,399 4.7 -4.9°
Sets 03:40:18 0° 76° (ENE) 2,256 6.3 -4.6°
